Tracking 33195 objects as of 8-Feb-2026
HD Live streaming from Space Station
objects crossing your sky now

IRIDE FM2

Track IRIDE FM2 now!
10-day predictions


NORAD ID: 66696
Int'l Code: 2025-276AG
Perigee: 514.5 km
Apogee: 521.5 km
Inclination: 97.4 °
Period: 94.8 minutes
Semi major axis: 6888 km
RCS: Unknown
Launch date: November 28, 2025
Source: Italy (IT)
Launch site: AIR FORCE WESTERN TEST RANGE (AFWTR)
Your satellite tracking list
Your tracking list is empty




NASA's NSSDC Master Catalog

Two Line Element Set (TLE):
1 66696U 25276AG  26038.90031390  .00010157  00000-0  49731-3 0  9990
2 66696  97.4307 114.6452 0005077 104.5900 255.5898 15.18352861 10795
Source of the keplerian elements: AFSPC